• In Portugal
  • List of Countries
  • For 7 days
  • Water Temperature
  • Satellite Maps
  • Weather Map
  • Weather Widgets
  • user-avatar
    Login

    Hourly Weather Innsbruck

    Today, 25 May, Friday

    Time Temperature Precipitation Wind Pressure Humidity
    00:00 +5°C° 0.1 mm 1 mps 597 mmHg 94%
    01:00 +5°C° 0 mm 1 mps 597 mmHg 93%
    02:00 +4°C° 0 mm 1 mps 597 mmHg 92%
    03:00 +4°C° 0 mm 1 mps 597 mmHg 92%
    04:00 +3°C° 0 mm 1 mps 596 mmHg 92%
    05:00 +5°C° 0 mm 1 mps 597 mmHg 88%
    06:00 +7°C° 0 mm 1 mps 598 mmHg 84%
    07:00 +8°C° 0 mm 1 mps 598 mmHg 80%
    08:00 +10°C° 0 mm 1 mps 599 mmHg 70%
    09:00 +12°C° 0 mm 1 mps 600 mmHg 61%
    10:00 +14°C° 0 mm 1 mps 601 mmHg 51%
    11:00 +15°C° 0 mm 1 mps 601 mmHg 48%
    12:00 +16°C° 0 mm 2 mps 601 mmHg 45%
    13:00 +16°C° 0 mm 2 mps 601 mmHg 42%
    14:00 +16°C° 0 mm 2 mps 601 mmHg 44%
    15:00 +16°C° 0 mm 2 mps 601 mmHg 46%
    16:00 +16°C° 0 mm 2 mps 600 mmHg 48%
    17:00 +14°C° 0.2 mm 2 mps 600 mmHg 58%
    18:00 +13°C° 0.2 mm 2 mps 600 mmHg 69%
    19:00 +10°C° 0.2 mm 2 mps 599 mmHg 79%
    20:00 +10°C° 0 mm 1 mps 599 mmHg 84%
    21:00 +8°C° 0 mm 1 mps 598 mmHg 89%
    22:00 +6°C° 0 mm 1 mps 598 mmHg 94%
    23:00 +6°C° 0 mm 1 mps 598 mmHg 93%

    Tomorrow, 26 May, Saturday

    Time Temperature Precipitation Wind Pressure Humidity
    00:00 +6°C° 0 mm 1 mps 598 mmHg 93%
    01:00 +5°C° 0 mm 1 mps 598 mmHg 92%
    02:00 +5°C° 0 mm 1 mps 598 mmHg 92%
    03:00 +5°C° 0 mm 1 mps 598 mmHg 91%
    04:00 +5°C° 0 mm 1 mps 597 mmHg 90%
    05:00 +7°C° 0 mm 1 mps 599 mmHg 85%
    06:00 +9°C° 0 mm 1 mps 600 mmHg 79%
    07:00 +10°C° 0 mm 0 mps 601 mmHg 73%
    08:00 +12°C° 0 mm 0 mps 602 mmHg 64%
    09:00 +15°C° 0 mm 1 mps 603 mmHg 54%
    10:00 +18°C° 0 mm 1 mps 603 mmHg 44%
    11:00 +18°C° 0.1 mm 1 mps 604 mmHg 42%
    12:00 +19°C° 0.1 mm 1 mps 604 mmHg 40%
    13:00 +20°C° 0.1 mm 1 mps 604 mmHg 38%
    14:00 +19°C° 0.3 mm 1 mps 603 mmHg 42%
    15:00 +19°C° 0.3 mm 1 mps 603 mmHg 45%
    16:00 +18°C° 0.3 mm 1 mps 603 mmHg 48%
    17:00 +16°C° 0.8 mm 1 mps 602 mmHg 59%
    18:00 +14°C° 0.8 mm 1 mps 602 mmHg 70%
    19:00 +12°C° 0.8 mm 1 mps 601 mmHg 81%
    20:00 +11°C° 0.8 mm 1 mps 601 mmHg 83%
    21:00 +10°C° 0.8 mm 1 mps 600 mmHg 85%
    22:00 +9°C° 0.8 mm 1 mps 600 mmHg 87%
    23:00 +8°C° 0.1 mm 1 mps 600 mmHg 86%

    Day after tomorrow, 27 May, Sunday

    Time Temperature Precipitation Wind Pressure Humidity
    00:00 +8°C° 0.1 mm 1 mps 599 mmHg 85%
    01:00 +7°C° 0.1 mm 1 mps 599 mmHg 85%
    02:00 +7°C° 0 mm 1 mps 599 mmHg 85%
    03:00 +7°C° 0 mm 1 mps 599 mmHg 84%
    04:00 +6°C° 0 mm 1 mps 598 mmHg 84%
    05:00 +8°C° 0 mm 1 mps 599 mmHg 79%
    06:00 +10°C° 0 mm 1 mps 600 mmHg 74%
    07:00 +12°C° 0 mm 1 mps 601 mmHg 68%
    08:00 +14°C° 0 mm 1 mps 601 mmHg 60%
    09:00 +16°C° 0 mm 1 mps 602 mmHg 51%
    10:00 +19°C° 0 mm 1 mps 603 mmHg 43%
    11:00 +19°C° 0.2 mm 1 mps 603 mmHg 41%
    12:00 +20°C° 0.2 mm 1 mps 603 mmHg 40%
    13:00 +21°C° 0.2 mm 1 mps 603 mmHg 38%
    14:00 +20°C° 0.4 mm 1 mps 603 mmHg 43%
    15:00 +18°C° 0.4 mm 2 mps 602 mmHg 47%
    16:00 +17°C° 0.4 mm 2 mps 602 mmHg 51%
    17:00 +16°C° 1.8 mm 1 mps 601 mmHg 61%
    18:00 +14°C° 1.8 mm 1 mps 600 mmHg 72%
    19:00 +12°C° 1.8 mm 1 mps 600 mmHg 82%
    20:00 +11°C° 0.8 mm 1 mps 599 mmHg 84%
    21:00 +10°C° 0.8 mm 1 mps 599 mmHg 87%
    22:00 +8°C° 0.8 mm 2 mps 599 mmHg 89%
    23:00 +8°C° 0.4 mm 2 mps 599 mmHg 89%

    28 May, Monday

    Time Temperature Precipitation Wind Pressure Humidity
    00:00 +7°C° 0.4 mm 2 mps 599 mmHg 88%
    01:00 +7°C° 0.4 mm 2 mps 598 mmHg 88%
    02:00 +7°C° 0.1 mm 2 mps 598 mmHg 88%
    03:00 +6°C° 0.1 mm 2 mps 598 mmHg 87%
    04:00 +6°C° 0.1 mm 2 mps 598 mmHg 87%
    05:00 +9°C° 0 mm 1 mps 599 mmHg 82%
    06:00 +10°C° 0 mm 1 mps 599 mmHg 77%
    07:00 +12°C° 0 mm 1 mps 600 mmHg 72%
    08:00 +14°C° 0 mm 1 mps 601 mmHg 63%
    09:00 +15°C° 0 mm 1 mps 602 mmHg 55%
    10:00 +18°C° 0 mm 1 mps 602 mmHg 46%
    11:00 +19°C° 0.2 mm 1 mps 602 mmHg 46%
    12:00 +18°C° 0.2 mm 2 mps 602 mmHg 45%
    13:00 +18°C° 0.2 mm 2 mps 602 mmHg 45%
    14:00 +18°C° 0.8 mm 2 mps 602 mmHg 51%
    15:00 +17°C° 0.8 mm 2 mps 601 mmHg 57%
    16:00 +16°C° 0.8 mm 2 mps 601 mmHg 62%
    17:00 +15°C° 1.3 mm 2 mps 600 mmHg 69%
    18:00 +14°C° 1.3 mm 1 mps 600 mmHg 75%
    19:00 +13°C° 1.3 mm 1 mps 599 mmHg 82%
    20:00 +12°C° 0.1 mm 1 mps 599 mmHg 85%
    21:00 +10°C° 0.1 mm 2 mps 599 mmHg 88%
    22:00 +8°C° 0.1 mm 2 mps 598 mmHg 91%
    23:00 +8°C° 0 mm 2 mps 598 mmHg 92%

    29 May, Tuesday

    Time Temperature Precipitation Wind Pressure Humidity
    00:00 +7°C° 0 mm 2 mps 598 mmHg 92%
    01:00 +7°C° 0 mm 2 mps 598 mmHg 93%
    02:00 +7°C° 0 mm 2 mps 598 mmHg 92%
    03:00 +7°C° 0 mm 2 mps 597 mmHg 92%
    04:00 +6°C° 0 mm 2 mps 597 mmHg 92%
    05:00 +8°C° 0 mm 2 mps 598 mmHg 87%
    06:00 +9°C° 0 mm 2 mps 598 mmHg 81%
    07:00 +12°C° 0 mm 2 mps 599 mmHg 76%
    08:00 +14°C° 0 mm 2 mps 600 mmHg 66%
    09:00 +16°C° 0 mm 2 mps 600 mmHg 57%
    10:00 +18°C° 0 mm 2 mps 601 mmHg 48%
    11:00 +19°C° 0.2 mm 2 mps 601 mmHg 47%
    12:00 +19°C° 0.2 mm 2 mps 601 mmHg 46%
    13:00 +20°C° 0.2 mm 2 mps 601 mmHg 44%
    14:00 +19°C° 0.5 mm 2 mps 601 mmHg 47%
    15:00 +19°C° 0.5 mm 2 mps 600 mmHg 50%
    16:00 +18°C° 0.5 mm 2 mps 600 mmHg 53%
    17:00 +17°C° 1 mm 2 mps 599 mmHg 62%
    18:00 +15°C° 1 mm 2 mps 599 mmHg 72%
    19:00 +14°C° 1 mm 2 mps 598 mmHg 81%
    20:00 +13°C° 1.7 mm 2 mps 598 mmHg 85%
    21:00 +12°C° 1.7 mm 2 mps 597 mmHg 88%
    22:00 +9°C° 1.7 mm 2 mps 597 mmHg 92%
    23:00 +9°C° 0.2 mm 2 mps 597 mmHg 92%

    30 May, Wednesday

    Time Temperature Precipitation Wind Pressure Humidity
    00:00 +9°C° 0.2 mm 2 mps 597 mmHg 91%
    01:00 +8°C° 0.2 mm 2 mps 597 mmHg 91%
    02:00 +8°C° 0 mm 2 mps 596 mmHg 91%
    03:00 +8°C° 0 mm 2 mps 596 mmHg 91%
    04:00 +7°C° 0 mm 2 mps 596 mmHg 91%
    05:00 +8°C° 0 mm 2 mps 596 mmHg 87%
    06:00 +10°C° 0 mm 2 mps 597 mmHg 82%
    07:00 +12°C° 0 mm 2 mps 598 mmHg 78%
    08:00 +14°C° 0 mm 2 mps 598 mmHg 69%
    09:00 +16°C° 0 mm 2 mps 599 mmHg 59%
    10:00 +18°C° 0 mm 2 mps 600 mmHg 50%
    11:00 +19°C° 0.4 mm 2 mps 600 mmHg 48%
    12:00 +19°C° 0.4 mm 2 mps 600 mmHg 47%
    13:00 +20°C° 0.4 mm 2 mps 600 mmHg 45%
    14:00 +19°C° 1.2 mm 2 mps 600 mmHg 50%
    15:00 +18°C° 1.2 mm 2 mps 599 mmHg 55%
    16:00 +17°C° 1.2 mm 2 mps 599 mmHg 60%
    17:00 +16°C° 1.8 mm 2 mps 598 mmHg 67%
    18:00 +15°C° 1.8 mm 2 mps 598 mmHg 73%
    19:00 +14°C° 1.8 mm 1 mps 598 mmHg 80%
    20:00 +12°C° 1.4 mm 2 mps 597 mmHg 83%
    21:00 +10°C° 1.4 mm 2 mps 597 mmHg 87%
    22:00 +9°C° 1.4 mm 2 mps 597 mmHg 91%
    23:00 +8°C° 0.2 mm 2 mps 597 mmHg 91%
    Show more